Back to catalog

COSMOS 397 DEB

AliveLEO
NORAD 5098·DEBRIS·🇷🇺 Russia

Launched Feb 25, 1971 from Baikonur Cosmodrome

Loading…

Next Passes

TLE

Source: Space-Track
1 05098U 71015X   26229.71017519  .00000495  00000-0  18958-3 0  9990
2 05098  65.8318 126.1123 0715729 297.2549  55.7337 13.48010580659358

Track COSMOS 397 DEB in real time with AllMySat

Download on the App Store